sat.trackr.live / text

‹ back to catalog

TIANHUI 5C

NORAD 60211 · 2024-126A

PAYLOAD ACTIVE UNKNOWN

§ Identity

Operator
Country
PRC
Launch date
2024-07-04
Launch site
TAISC
Launch vehicle
Mass (kg)
RCS (m²)

External: N2YO · Heavens-Above · Gunter

§ Orbital elements

Epoch: 2026-09-22T13:34:55.645248Z

Period
96.80 min
Inclination
97.8208°
Eccentricity
0.0001546
Mean motion
14.87579951 rev/d
Perigee alt
604.4 km
Apogee alt
606.6 km
Semi-major
6,983.6 km
B*
2.0803e-5
RAAN
271.7451°
Arg perigee
88.7931°
Mean anomaly
271.3462°
Rev number
12,036

§ Raw data

TIANHUI 5C1 60211U 24126A   26265.56592182  .00000135  00000+0  20803-4 0  99992 60211  97.8208 271.7451 0001546  88.7931 271.3462 14.87579951120368

JSON: /api/v1/satellites/60211 · /tle

For live sub-satellite position, see the globe view (requires WebGL).

§ Visibility from observer

Set your observer location to see the next 7 days of passes ≥ 10°. The values pass through the URL so the page stays shareable.

No JS? Fill the form by hand. The geolocation button needs JavaScript.